{"data":{"norad_id":48143,"intl_designator":"2021-027BD","name":"STARLINK-2486","alt_names":[],"object_type":"PAYLOAD","status":"ACTIVE","operator":null,"country":"US","launch_date":"2021-04-07","launch_site_code":"AFETR","launch_vehicle":null,"mission":null,"orbit_class":"UNKNOWN","rcs_meters":null,"size_class":null,"mass_kg":null,"dimensions":null,"purposes":["comms"],"wikipedia_slug":null,"has_3d_model":false,"image_url":null,"decayed_at":null,"tle_current":{"epoch":"2026-09-19T17:35:48.827328Z","epoch_age_seconds":95500,"freshness":"FRESH","line1":"1 48143U 21027BD  26262.73320402  .00047814  00000+0  88337-3 0  9996","line2":"2 48143  53.1518 267.2441 0005431  47.9595 312.1875 15.48612847303293","mean_motion":15.48612847,"eccentricity":0.0005431,"inclination_deg":53.1518,"raan_deg":267.2441,"arg_perigee_deg":47.9595,"mean_anomaly_deg":312.1875,"bstar":0.00088337,"rev_number":30329,"period_min":92.986442853654,"perigee_km":417.09058632765,"apogee_km":424.47557331835,"semimajor_km":6798.920079823,"source":"CELESTRAK","updated_at":"2026-09-20T09:00:38.925752Z"}}}